TimeAKST,TemperatureF,Dew PointF,Humidity,Sea Level PressureIn,VisibilityMPH,Wind Direction,Wind SpeedMPH,Gust SpeedMPH,PrecipitationIn,Events,Conditions,WindDirDegrees,DateUTC
12:53 AM,46.0,30.9,56,29.75,10.0,ESE,21.9,28.8,N/A,,Clear,110,2013-11-04 09:53:00
1:53 AM,46.0,30.9,56,29.69,10.0,East,20.7,28.8,N/A,,Scattered Clouds,90,2013-11-04 10:53:00
3:53 AM,45.0,32.0,60,29.64,10.0,ESE,19.6,-,0.00,,Overcast,120,2013-11-04 12:53:00
4:53 AM,46.0,33.1,61,29.60,10.0,East,20.7,29.9,0.00,Rain,Light Rain,90,2013-11-04 13:53:00
5:53 AM,45.0,35.1,68,29.56,10.0,ESE,20.7,28.8,0.01,Rain,Light Rain,110,2013-11-04 14:53:00
6:53 AM,45.0,34.0,65,29.53,10.0,ESE,17.3,28.8,0.02,Rain,Light Rain,120,2013-11-04 15:53:00
7:53 AM,46.0,33.1,61,29.51,10.0,ESE,25.3,36.8,0.00,,Overcast,110,2013-11-04 16:53:00
8:53 AM,46.0,33.1,61,29.52,10.0,ESE,25.3,34.5,N/A,,Overcast,110,2013-11-04 17:53:00
9:53 AM,46.0,33.1,61,29.56,10.0,East,21.9,32.2,0.00,Rain,Light Rain,100,2013-11-04 18:53:00
10:53 AM,46.0,34.0,63,29.58,10.0,ESE,17.3,25.3,0.00,,Overcast,110,2013-11-04 19:53:00
11:25 AM,46.9,35.1,63,29.59,10.0,ESE,15.0,-,N/A,,Overcast,110,2013-11-04 20:25:00
11:53 AM,46.9,36.0,66,29.59,9.0,ESE,16.1,23.0,0.00,Rain,Light Rain,110,2013-11-04 20:53:00
12:53 PM,46.9,37.9,71,29.61,7.0,SE,9.2,-,0.01,Rain,Light Rain,140,2013-11-04 21:53:00
1:53 PM,46.0,39.0,76,29.61,7.0,East,11.5,-,0.02,Rain,Light Rain,100,2013-11-04 22:53:00
2:16 PM,46.0,39.9,79,29.61,7.0,East,10.4,-,0.00,Rain,Light Rain,100,2013-11-04 23:16:00
2:31 PM,46.0,39.9,79,29.61,5.0,East,9.2,-,0.02,Rain,Rain,100,2013-11-04 23:31:00
2:53 PM,46.0,39.9,79,29.62,10.0,East,11.5,-,0.02,,Overcast,100,2013-11-04 23:53:00
5:53 PM,44.6,39.2,81,29.62,10.0,East,112.8,-,N/A,,Overcast,90,2013-11-05 02:53:00
6:53 PM,46.4,39.2,76,29.62,10.0,ESE,10.4,-,N/A,,Overcast,110,2013-11-05 03:53:00
7:35 PM,44.6,39.2,81,29.64,10.0,SE,9.2,-,N/A,Rain,Light Rain,130,2013-11-05 04:35:00
8:53 PM,44.6,37.4,76,29.64,4.0,ESE,11.5,-,N/A,Rain,Rain,110,2013-11-05 05:53:00
9:52 PM,44.6,39.2,81,29.64,10.0,East,10.4,-,N/A,Rain,Light Rain,100,2013-11-05 06:52:00
10:53 PM,45.0,39.0,80,29.65,5.0,ESE,11.5,-,0.05,Rain,Rain,120,2013-11-05 07:53:00
11:15 PM,44.1,39.0,82,29.63,10.0,East,11.5,-,0.02,Rain,Light Rain,100,2013-11-05 08:15:00
11:53 PM,45.0,39.0,80,29.65,5.0,ESE,17.3,-,0.04,Rain,Light Rain,110,2013-11-05 08:53:00